Regional Weather Roundup
Issued by NWS

Home | Current Version | Previous Version | Graphics & Text | Print | Product List | Glossary On
Versions: 1 2 3 4 5 6 7 8 9 10 11 12 13 14 15 16 17 18 19 20 21 22 23 24 25 26 27 28 29 30 31 32 33 34 35 36 37 38 39 40 41 42 43 44 45 46 47 48 49 50
000
ASUS44 KMEG 240710
RWRTN
TENNESSEE HOURLY STATE WEATHER ROUNDUP
NATIONAL WEATHER SERVICE MEMPHIS TN
200 AM CDT THU JUL 24 2014

TNZ002-004-019-021-049-052-054-088>092-240800-
WEST TENNESSEE

CITY           SKY/WX    TMP DP  RH WIND       PRES   REMARKS
MEMPHIS INTL   PTCLDY    73  68  84 CALM      30.01F
NWS MEMPHIS      N/A     70 N/A N/A MISG        N/A
JACKSON        MOCLDY    68  67  96 CALM      30.01S FOG
DYERSBURG      MOCLDY    72  63  73 N6        30.02F
UNION CITY     PTCLDY    70  68  94 N6        30.01S
PARIS          CLEAR     68  65  90 N5        30.01S
LEXINGTON      CLEAR     70  66  88 CALM      29.99S
$$

TNZ008-025-027-028-033-062-065-066-240800-
NORTH MIDDLE TENNESSEE

CITY           SKY/WX    TMP DP  RH WIND       PRES   REMARKS
NASHVILLE      CLEAR     75  68  78 NW5       29.98F
DICKSON        CLEAR     70  66  88 N5        29.99F
PORTLAND       PTCLDY    70  66  88 W3        29.97F
CLARKSVILLE    MOCLDY    73  68  84 N12       29.98F
LEBANON        CLEAR     70  68  93 CALM      29.96F
SMYRNA         CLEAR     70  70 100 CALM      29.98F
MURFREESBORO   CLEAR     71  70  97 CALM      29.97F
COOKEVILLE     PTCLDY    70  68  94 CALM      29.98S
LIVINGSTON     CLOUDY    68  68 100 SW6       29.99F
GALLATIN       CLEAR     72  71  96 CALM      29.98F
CROSSVILLE     CLOUDY    70  68  93 SW3       30.01F FOG
$$

TNZ061-075-076-078-094-096-097-240800-
SOUTH MIDDLE TENNESSEE

CITY           SKY/WX    TMP DP  RH WIND       PRES   REMARKS
LEWISBURG      PTCLDY    71  68  90 CALM      29.97F
FAYETTEVILLE   MOCLDY    70  70 100 MISG      29.99S
TULLAHOMA      PTCLDY    70  68  94 S5        30.00F
WINCHESTER     CLOUDY    72  70  94 CALM      30.00S
MCMINNVILLE    PTCLDY    70  70 100 CALM      29.98F
COLUMBIA       PTCLDY    73  72  94 CALM      29.97F
SHELBYVILLE    PTCLDY    73  72  94 CALM      29.98F
$$

TNZ017-018-042-046-047-240800-
NORTHEAST TENNESSEE

CITY           SKY/WX    TMP DP  RH WIND       PRES   REMARKS
TRI CITIES     CLOUDY    70  66  87 CALM      30.00F
ELIZABETHTON   MOSUNNY   66  66 100 CALM      30.01F
$$

TNZ012-013-036-069-073-074-240800-
CENTRAL EAST TENNESSEE

CITY           SKY/WX    TMP DP  RH WIND       PRES   REMARKS
KNOXVILLE      CLOUDY    73  69  87 S3        29.96F
OAK RIDGE      CLOUDY    72  70  93 CALM      29.98F
GATLINBURG     PTSUNNY   70  68  94 CALM      29.97F
MORRISTOWN     SUNNY     70  70 100 CALM      29.99F
$$

TNZ083-085-099-240800-
SOUTHEAST TENNESSEE

CITY           SKY/WX    TMP DP  RH WIND       PRES   REMARKS
CHATTANOOGA    PTCLDY    75  70  84 S5        29.98R
$$

SKY/WX REPORTED AS FAIR MEANS FEW OR NO CLOUDS BELOW
12 THOUSAND FEET.




USA.gov is the U.S. government's official web portal to all federal, state and local government web resources and services.